DELTA 1 DEB, 7055

Orbit data source: Space-Track

DELTA 1 DEB, 7055 is space debris in LEO originally from a launch on Tue, 06 Nov 1973 UTC launched from the Air Force Western Test Range (AFWTR). Debris objects in space refer to the collection of defunct objects orbiting the Earth. Examples of debris include non-operational satellites, rocket bodies, and fragments generated from explosions, collisions, or faulty payload assembly.

Loading next visibility...
Identifier
7055, 1973-086AX
Orbit
LEO
Country
Flag of USUS
Related business
Manufacturer
Unknown
Mission
Spacecraft
Bus & Motor
Unknown
Mass
Unknown
Launch date (UTC)
1973-11-06 (53 years ago)
Launch vehicle
Unknown
Launch site
Air Force Western Test Range (AFWTR)
Object type
Payload
Rocket body
Debris
Shape & HBR
Unknown shape, 0.1 m
Radar Cross Section
Medium (>0.1 m² and <1 m²)

Expand to show TLE details & history
Last TLE update: 1 day ago

TLE from 1 day ago
0 DELTA 1 DEB
1 07055U 73086AX  26255.04842343  .00000000  00000-0  51203-3 0  9993
2 07055 102.6637 325.7015 0344710  32.1362  40.5129 11.84226646283984
Epoch: 2026-09-12T01:09Z
TLE epoch observation values (Epoch: 2026-09-12T01:09:43.784Z)
Latitude
70.7638°
Longitude
-82.64371°
Altitude
1,555.427 km
Speed
7.186 km/s
True Right ascension
19h 03m 24s
True Declination
70° 40' 02"
Sunlit
Object was in daylight at epoch
Visualization orbit readout
Latitude
Unknown
Longitude
Unknown
Altitude
Unknown
Speed
Unknown
Apparent Right ascension
Unknown
Apparent Declination
Unknown
Sunlit
N/A
Visualization observer readout
Local Sidereal Time
21:12:11
Azimuth
Unknown
Elevation
Unknown
Doppler factor
Unknown
Orbital elements
Apogee altitude
2,030.13 km
Perigee altitude
1,469.764 km
Semi-major axis
8,128.084 km
Eccentricity
0.03447
Inclination
102.6637°
RAAN
325.7015°
Arg. of periapsis
32.1362°
True anomaly
43.16478°
Mean anomaly
40.5129°
Eccentric anomaly
41.8301°
Mean motion
2.96184 °/min
Orbital period
121.55 mins
BSTAR
0.00051203
Loading maneuver chart data...
Computing Atmospheric mass density...

Documentation

Showing up to 5 results
|